Tracking 19562 objects as of 21-Mar-2019
HD Live streaming from Space Station
objects crossing your sky now

MOVE-II

Track MOVE-II now!
10-day predictions


NORAD ID: 43780
Int'l Code: 2018-099Y
Perigee: 581.2 km
Apogee: 598.1 km
Inclination: 97.8 °
Period: 96.3 minutes
Semi major axis: 6960 km
RCS: Unknown
Launch date: December 3, 2018
Source: Germany (GER)
Launch site: AIR FORCE WESTERN TEST RANGE (AFWTR)
aabbcc
Your satellite tracking list
Your tracking list is empty




NASA's NSSDC Master Catalog

Two Line Element Set (TLE):
1 43780U 18099Y   19080.45087429  .00000131  00000-0  17314-4 0  9991
2 43780  97.7516 153.4433 0012191 268.8234  91.1590 14.94951697 16073
Source of the keplerian elements: AFSPC